Date String (YYYY-MM-DD hh:mm:ss) UTC,Instrument flags,absolute air pressure of the measurement (hPa),sample flow rate (lpm),inlet stack bypass flow (lpm),air temperature of the measurement (°C),ambient temperature measured by the external sensor (°C),aerosol sample conditioner tube jacket temperature (°C),OPC LED temperature (°C),internal box temperature (°C),relative humidity of the measurement (%),span deviation,mass concentration of particles derived from Lorenz-Mie calculation of OPC scattering (μg/m³),mass concentration of particles derived from Lorenz-Mie calculation of OPC scattering (μg/m³),mass concentration of particles derived from Lorenz-Mie calculation of OPC scattering (μg/m³)
DateTimeUTC,F1_M11,P_M11,Q1_M11,Q2_M11,T1_M11,T2_M11,T3_M11,T4_M11,T5_M11,U1_M11,ZSPAN_M11,X0_M11,X2_M11,X1_M11
2023-06-29 14:00:00,SystemResetWarning,0833.4,5.00,000.00,029.6,028.3,000.0,038.2,031.2,32.1,0000.0,0013.46,0005.12,0003.72
2023-06-29 14:01:00,SystemResetWarning,0833.4,5.00,000.00,029.6,028.4,000.0,038.2,031.3,32.1,0000.0,0013.31,0005.09,0003.72
2023-06-29 14:02:00,SystemResetWarning,0833.5,5.00,000.00,029.7,028.5,000.0,038.2,031.3,32.1,0000.0,0013.88,0005.14,0003.72
2023-06-29 14:03:00,SystemResetWarning,0833.4,5.00,000.00,029.7,028.5,000.0,038.2,031.3,32.2,0000.0,0013.90,0005.17,0003.73
2023-06-29 14:04:00,SystemResetWarning,0833.5,5.00,000.00,029.7,028.6,000.0,038.2,031.3,32.1,0000.0,0013.40,0005.10,0003.75
2023-06-29 14:05:00,SystemResetWarning,0833.5,5.00,000.00,029.8,028.6,000.0,038.2,031.4,32.0,0000.0,0013.40,0005.00,0003.76
2023-06-29 14:06:00,SystemResetWarning,0833.5,4.99,000.00,029.8,028.3,000.0,038.2,031.4,32.5,0000.0,0012.90,0004.94,0003.76
2023-06-29 14:07:00,SystemResetWarning,0833.5,5.00,000.00,029.8,026.7,000.0,038.1,031.2,32.4,0000.0,0012.34,0004.88,0003.77
2023-06-29 14:08:00,SystemResetWarning,0833.4,5.02,000.00,029.7,026.0,000.0,038.0,031.1,32.6,0000.0,0011.74,0004.83,0003.78
2023-06-29 14:09:00,SystemResetWarning,0833.4,4.98,000.00,029.6,026.1,000.0,038.0,030.9,32.2,0000.0,0011.32,0004.81,0003.79
2023-06-29 14:10:00,SystemResetWarning,0833.5,5.01,000.00,029.5,026.4,000.0,038.1,030.8,32.1,0000.0,0011.27,0004.81,0003.80
2023-06-29 14:11:00,SystemResetWarning,0833.5,5.02,000.00,029.5,026.7,000.0,038.1,030.9,32.2,0000.0,0011.35,0004.83,0003.81
2023-06-29 14:12:00,SystemResetWarning,0833.5,4.99,000.00,029.5,027.0,000.0,038.1,031.0,32.8,0000.0,0011.71,0004.88,0003.83
2023-06-29 14:13:00,SystemResetWarning,0833.6,5.00,000.00,029.5,027.3,000.0,038.1,031.0,33.0,0000.0,0011.37,0004.90,0003.85
2023-06-29 14:14:00,SystemResetWarning,0833.6,5.01,000.00,029.5,027.6,000.0,038.1,031.1,33.1,0000.0,0011.13,0004.92,0003.86
2023-06-29 14:15:00,SystemResetWarning,0833.6,5.01,000.00,029.5,027.8,000.0,038.1,031.1,32.7,0000.0,0011.32,0004.94,0003.87
2023-06-29 14:16:00,SystemResetWarning,0833.6,5.00,000.00,029.6,027.9,000.0,038.1,031.2,33.0,0000.0,0011.25,0005.04,0003.90
2023-06-29 14:17:00,SystemResetWarning,0833.6,4.99,000.00,029.6,028.1,000.0,038.1,031.2,33.2,0000.0,0011.10,0005.06,0003.91
2023-06-29 14:18:00,SystemResetWarning,0833.6,4.99,000.00,029.6,028.2,000.0,038.1,031.2,33.1,0000.0,0011.97,0005.12,0003.92
2023-06-29 14:19:00,SystemResetWarning,0833.7,5.00,000.00,029.6,028.3,000.0,038.2,031.3,32.4,0000.0,0011.95,0005.10,0003.93
2023-06-29 14:20:00,SystemResetWarning,0833.6,5.00,000.00,029.7,028.4,000.0,038.2,031.3,32.2,0000.0,0011.67,0005.12,0003.93
2023-06-29 14:21:00,SystemResetWarning,0833.7,5.00,000.00,029.7,028.5,000.0,038.2,031.3,32.0,0000.0,0011.56,0005.14,0003.94
2023-06-29 14:22:00,SystemResetWarning,0833.7,5.00,000.00,029.7,028.5,000.0,038.2,031.3,32.2,0000.0,0011.50,0005.17,0003.94
2023-06-29 14:23:00,SystemResetWarning,0833.7,5.00,000.00,029.7,028.3,000.0,038.2,031.4,32.5,0000.0,0011.60,0005.17,0003.94
2023-06-29 14:24:00,SystemResetWarning,0833.6,5.00,000.00,029.7,026.5,000.0,038.1,031.2,32.0,0000.0,0012.11,0005.12,0003.94
2023-06-29 14:25:00,SystemResetWarning,0833.6,5.00,000.00,029.6,025.1,000.0,038.0,030.9,32.1,0000.0,0013.65,0005.12,0003.95
2023-06-29 14:26:00,SystemResetWarning,0833.6,5.00,000.00,029.5,024.9,000.0,037.9,030.7,32.7,0000.0,0014.19,0005.15,0003.96
2023-06-29 14:27:00,SystemResetWarning,0833.6,5.01,000.00,029.4,025.2,000.0,037.9,030.5,33.2,0000.0,0014.22,0005.12,0003.96
2023-06-29 14:28:00,SystemResetWarning,0833.6,5.00,000.00,029.3,025.6,000.0,037.9,030.5,33.4,0000.0,0014.27,0005.11,0003.96
2023-06-29 14:29:00,SystemResetWarning,0833.6,5.00,000.00,029.3,026.1,000.0,037.9,030.6,33.5,0000.0,0014.66,0005.09,0003.96
2023-06-29 14:30:00,SystemResetWarning,0833.6,4.99,000.00,029.3,026.5,000.0,037.9,030.7,33.5,0000.0,0014.87,0005.09,0003.96
2023-06-29 14:31:00,SystemResetWarning,0833.6,5.00,000.00,029.3,026.8,000.0,037.9,030.8,33.2,0000.0,0015.28,0005.04,0003.96
2023-06-29 14:32:00,SystemResetWarning,0833.6,4.99,000.00,029.3,027.1,000.0,037.9,030.8,33.8,0000.0,0015.73,0005.01,0003.97
2023-06-29 14:33:00,SystemResetWarning,0833.6,5.01,000.00,029.3,027.4,000.0,037.9,030.9,33.5,0000.0,0016.52,0004.99,0003.98
2023-06-29 14:34:00,SystemResetWarning,0833.6,5.02,000.00,029.3,027.6,000.0,037.9,030.9,33.9,0000.0,0016.68,0004.99,0003.99
2023-06-29 14:35:00,SystemResetWarning,0833.7,5.00,000.00,029.4,027.7,000.0,037.9,031.0,34.4,0000.0,0016.17,0005.01,0003.99
2023-06-29 14:36:00,SystemResetWarning,0833.7,5.00,000.00,029.4,027.9,000.0,038.0,031.0,34.2,0000.0,0014.65,0005.01,0003.99
2023-06-29 14:37:00,SystemResetWarning,0833.7,4.99,000.00,029.4,028.0,000.0,038.0,031.0,34.3,0000.0,0013.88,0005.02,0003.99
2023-06-29 14:38:00,SystemResetWarning,0833.7,4.99,000.00,029.4,028.1,000.0,038.0,031.1,34.0,0000.0,0013.66,0005.04,0004.00
2023-06-29 14:39:00,SystemResetWarning,0833.7,5.00,000.00,029.5,028.2,000.0,038.0,031.1,32.9,0000.0,0013.62,0005.02,0004.01
2023-06-29 14:40:00,SystemResetWarning,0833.7,5.00,000.00,029.5,028.3,000.0,038.0,031.1,33.0,0000.0,0012.68,0005.03,0004.03
2023-06-29 14:41:00,SystemResetWarning,0833.7,5.00,000.00,029.5,028.3,000.0,038.0,031.2,33.3,0000.0,0012.39,0005.11,0004.06
2023-06-29 14:42:00,SystemResetWarning,0833.7,5.01,000.00,029.5,028.4,000.0,038.0,031.2,33.3,0000.0,0012.27,0005.17,0004.08
2023-06-29 14:43:00,SystemResetWarning,0833.7,4.99,000.00,029.6,028.5,000.0,038.1,031.2,33.7,0000.0,0011.74,0005.17,0004.09
2023-06-29 14:44:00,SystemResetWarning,0833.7,4.99,000.00,029.6,028.5,000.0,038.1,031.3,33.4,0000.0,0011.23,0005.23,0004.12
2023-06-29 14:45:00,SystemResetWarning,0833.7,4.99,000.00,029.6,028.5,000.0,038.1,031.3,33.4,0000.0,0011.37,0005.28,0004.15
2023-06-29 14:46:00,SystemResetWarning,0833.7,5.00,000.00,029.7,028.6,000.0,038.1,031.3,33.6,0000.0,0011.23,0005.34,0004.19
2023-06-29 14:47:00,SystemResetWarning,0833.7,5.00,000.00,029.7,028.6,000.0,038.2,031.4,33.7,0000.0,0011.34,0005.38,0004.21
2023-06-29 14:48:00,SystemResetWarning,0833.7,5.00,000.00,029.7,028.7,000.0,038.2,031.4,33.4,0000.0,0011.29,0005.37,0004.22
2023-06-29 14:49:00,SystemResetWarning,0833.7,5.01,000.00,029.8,028.5,000.0,038.2,031.4,33.7,0000.0,0011.30,0005.37,0004.23
2023-06-29 14:50:00,SystemResetWarning,0833.7,4.99,000.00,029.8,027.0,000.0,038.1,031.3,33.9,0000.0,0012.11,0005.40,0004.25
2023-06-29 14:51:00,SystemResetWarning,0833.7,5.02,000.00,029.7,026.1,000.0,038.0,031.1,33.7,0000.0,0012.65,0005.43,0004.27
2023-06-29 14:52:00,SystemResetWarning,0833.7,5.01,000.00,029.6,026.0,000.0,038.0,030.8,33.6,-000.2,0013.22,0005.42,0004.28
2023-06-29 14:53:00,SystemResetWarning,0833.7,5.00,000.00,029.5,026.3,000.0,038.0,030.8,33.8,-000.5,0013.38,0005.45,0004.30
2023-06-29 14:54:00,SystemResetWarning,0833.7,5.00,000.00,029.5,026.7,000.0,038.1,030.9,34.2,-000.5,0014.60,0005.52,0004.34
2023-06-29 14:55:00,SystemResetWarning,0833.7,5.00,000.00,029.5,027.0,000.0,038.1,030.9,34.6,-001.2,0014.50,0005.52,0004.37
2023-06-29 14:56:00,SystemResetWarning,0833.7,5.00,000.00,029.5,027.3,000.0,038.1,031.0,34.0,-001.1,0013.78,0005.52,0004.38
2023-06-29 14:57:00,SystemResetWarning,0833.7,4.99,000.00,029.5,027.5,000.0,038.1,031.0,34.2,-001.0,0013.97,0005.55,0004.41
2023-06-29 14:58:00,SystemResetWarning,0833.7,5.00,000.00,029.5,027.7,000.0,038.1,031.1,34.1,-000.8,0014.65,0005.59,0004.46
2023-06-29 14:59:00,SystemResetWarning,0833.7,5.00,000.00,029.5,027.9,000.0,038.1,031.1,34.0,-001.2,0015.08,0005.68,0004.51
